• In Belarus
  • List of Countries
  • For 7 days
  • Water Temperature
  • Satellite Maps
  • Weather Map
  • Weather Widgets
  • user-avatar
    Login

    Hourly Weather Chincholi

    Today, 18 January, Friday

    Time Temperature Precipitation Wind Pressure Humidity
    00:00 +23°C° 0 mm 2 mps 720 mmHg 39%
    01:00 +23°C° 0 mm 2 mps 720 mmHg 43%
    02:00 +21°C° 0 mm 2 mps 720 mmHg 47%
    03:00 +21°C° 0 mm 2 mps 720 mmHg 50%
    04:00 +20°C° 0 mm 2 mps 720 mmHg 54%
    05:00 +20°C° 0 mm 2 mps 720 mmHg 59%
    06:00 +21°C° 0 mm 2 mps 721 mmHg 57%
    07:00 +23°C° 0 mm 2 mps 721 mmHg 55%
    08:00 +24°C° 0 mm 2 mps 722 mmHg 52%
    09:00 +26°C° 0 mm 2 mps 722 mmHg 45%
    10:00 +28°C° 0 mm 2 mps 722 mmHg 38%
    11:00 +30°C° 0 mm 1 mps 722 mmHg 34%
    12:00 +31°C° 0 mm 1 mps 722 mmHg 30%
    13:00 +32°C° 0 mm 2 mps 721 mmHg 26%
    14:00 +32°C° 0 mm 2 mps 721 mmHg 23%
    15:00 +32°C° 0 mm 2 mps 720 mmHg 23%
    16:00 +32°C° 0 mm 2 mps 720 mmHg 23%
    17:00 +31°C° 0 mm 1 mps 720 mmHg 25%
    18:00 +30°C° 0 mm 2 mps 720 mmHg 27%
    19:00 +28°C° 0 mm 2 mps 720 mmHg 29%
    20:00 +27°C° 0 mm 2 mps 720 mmHg 30%
    21:00 +26°C° 0 mm 3 mps 721 mmHg 33%
    22:00 +26°C° 0 mm 3 mps 721 mmHg 36%
    23:00 +25°C° 0 mm 3 mps 721 mmHg 38%

    Tomorrow, 19 January, Saturday

    Time Temperature Precipitation Wind Pressure Humidity
    00:00 +24°C° 0 mm 3 mps 720 mmHg 41%
    01:00 +24°C° 0 mm 3 mps 720 mmHg 45%
    02:00 +22°C° 0 mm 3 mps 720 mmHg 48%
    03:00 +23°C° 0 mm 2 mps 720 mmHg 51%
    04:00 +21°C° 0 mm 2 mps 720 mmHg 54%
    05:00 +20°C° 0 mm 2 mps 720 mmHg 57%
    06:00 +21°C° 0 mm 2 mps 721 mmHg 56%
    07:00 +23°C° 0 mm 2 mps 722 mmHg 55%
    08:00 +24°C° 0 mm 2 mps 722 mmHg 53%
    09:00 +26°C° 0 mm 2 mps 722 mmHg 47%
    10:00 +28°C° 0 mm 3 mps 723 mmHg 40%
    11:00 +29°C° 0 mm 3 mps 723 mmHg 33%
    12:00 +30°C° 0 mm 3 mps 722 mmHg 29%
    13:00 +33°C° 0 mm 3 mps 722 mmHg 25%
    14:00 +34°C° 0 mm 3 mps 721 mmHg 20%
    15:00 +33°C° 0 mm 3 mps 721 mmHg 21%
    16:00 +33°C° 0 mm 3 mps 721 mmHg 21%
    17:00 +31°C° 0 mm 3 mps 720 mmHg 21%
    18:00 +30°C° 0 mm 3 mps 721 mmHg 23%
    19:00 +28°C° 0 mm 3 mps 721 mmHg 25%
    20:00 +26°C° 0 mm 3 mps 722 mmHg 27%
    21:00 +25°C° 0 mm 3 mps 722 mmHg 29%
    22:00 +25°C° 0 mm 3 mps 722 mmHg 32%
    23:00 +24°C° 0 mm 2 mps 722 mmHg 34%

    Day after tomorrow, 20 January, Sunday

    Time Temperature Precipitation Wind Pressure Humidity
    00:00 +23°C° 0 mm 2 mps 721 mmHg 36%
    01:00 +23°C° 0 mm 2 mps 721 mmHg 39%
    02:00 +21°C° 0 mm 2 mps 721 mmHg 41%
    03:00 +21°C° 0 mm 2 mps 721 mmHg 43%
    04:00 +22°C° 0 mm 1 mps 721 mmHg 45%
    05:00 +21°C° 0 mm 1 mps 721 mmHg 47%
    06:00 +22°C° 0 mm 1 mps 722 mmHg 47%
    07:00 +23°C° 0 mm 1 mps 723 mmHg 46%
    08:00 +24°C° 0 mm 1 mps 724 mmHg 45%
    09:00 +26°C° 0 mm 1 mps 724 mmHg 39%
    10:00 +28°C° 0 mm 2 mps 724 mmHg 32%
    11:00 +30°C° 0 mm 2 mps 724 mmHg 26%
    12:00 +31°C° 0 mm 2 mps 723 mmHg 23%
    13:00 +32°C° 0 mm 1 mps 722 mmHg 21%
    14:00 +33°C° 0 mm 1 mps 721 mmHg 18%
    15:00 +33°C° 0 mm 1 mps 721 mmHg 18%
    16:00 +32°C° 0 mm 1 mps 721 mmHg 19%
    17:00 +32°C° 0 mm 1 mps 721 mmHg 20%
    18:00 +30°C° 0 mm 1 mps 721 mmHg 21%
    19:00 +29°C° 0 mm 2 mps 721 mmHg 22%
    20:00 +27°C° 0 mm 2 mps 722 mmHg 23%
    21:00 +26°C° 0 mm 2 mps 722 mmHg 26%
    22:00 +25°C° 0 mm 2 mps 722 mmHg 30%
    23:00 +25°C° 0 mm 2 mps 722 mmHg 33%

    21 January, Monday

    Time Temperature Precipitation Wind Pressure Humidity
    00:00 +24°C° 0 mm 2 mps 721 mmHg 37%
    01:00 +23°C° 0 mm 2 mps 721 mmHg 41%
    02:00 +23°C° 0 mm 2 mps 720 mmHg 45%
    03:00 +21°C° 0 mm 2 mps 720 mmHg 48%
    04:00 +21°C° 0 mm 2 mps 720 mmHg 51%
    05:00 +20°C° 0 mm 2 mps 721 mmHg 53%
    06:00 +21°C° 0 mm 2 mps 721 mmHg 53%
    07:00 +23°C° 0 mm 2 mps 722 mmHg 52%
    08:00 +24°C° 0 mm 3 mps 723 mmHg 51%
    09:00 +26°C° 0 mm 3 mps 723 mmHg 44%
    10:00 +28°C° 0 mm 3 mps 723 mmHg 37%
    11:00 +30°C° 0 mm 4 mps 723 mmHg 29%
    12:00 +31°C° 0 mm 3 mps 722 mmHg 26%
    13:00 +33°C° 0 mm 3 mps 721 mmHg 22%
    14:00 +34°C° 0 mm 3 mps 720 mmHg 19%
    15:00 +33°C° 0 mm 3 mps 720 mmHg 19%
    16:00 +33°C° 0 mm 3 mps 720 mmHg 20%
    17:00 +31°C° 0 mm 3 mps 719 mmHg 20%
    18:00 +30°C° 0 mm 2 mps 720 mmHg 22%
    19:00 +28°C° 0 mm 2 mps 720 mmHg 23%
    20:00 +27°C° 0 mm 2 mps 721 mmHg 25%
    21:00 +26°C° 0 mm 2 mps 721 mmHg 29%
    22:00 +25°C° 0 mm 3 mps 721 mmHg 32%
    23:00 +24°C° 0 mm 3 mps 720 mmHg 36%

    22 January, Tuesday

    Time Temperature Precipitation Wind Pressure Humidity
    00:00 +24°C° 0 mm 3 mps 720 mmHg 39%
    01:00 +22°C° 0 mm 4 mps 720 mmHg 43%
    02:00 +22°C° 0 mm 4 mps 719 mmHg 46%
    03:00 +21°C° 0 mm 4 mps 719 mmHg 43%
    04:00 +21°C° 0 mm 3 mps 720 mmHg 40%
    05:00 +20°C° 0 mm 3 mps 720 mmHg 37%
    06:00 +21°C° 0 mm 3 mps 720 mmHg 34%
    07:00 +22°C° 0 mm 3 mps 721 mmHg 30%
    08:00 +24°C° 0 mm 3 mps 722 mmHg 26%
    09:00 +26°C° 0 mm 3 mps 722 mmHg 23%
    10:00 +28°C° 0 mm 3 mps 722 mmHg 20%
    11:00 +30°C° 0 mm 3 mps 722 mmHg 17%
    12:00 +31°C° 0 mm 3 mps 721 mmHg 16%
    13:00 +33°C° 0 mm 3 mps 720 mmHg 16%
    14:00 +33°C° 0 mm 3 mps 720 mmHg 15%
    15:00 +33°C° 0 mm 3 mps 719 mmHg 16%
    16:00 +32°C° 0 mm 2 mps 719 mmHg 16%
    17:00 +31°C° 0 mm 2 mps 719 mmHg 17%
    18:00 +30°C° 0 mm 2 mps 720 mmHg 18%
    19:00 +28°C° 0 mm 2 mps 720 mmHg 20%
    20:00 +26°C° 0 mm 2 mps 721 mmHg 21%
    21:00 +25°C° 0 mm 2 mps 721 mmHg 24%
    22:00 +25°C° 0 mm 3 mps 721 mmHg 26%
    23:00 +24°C° 0 mm 3 mps 721 mmHg 29%

    23 January, Wednesday

    Time Temperature Precipitation Wind Pressure Humidity
    00:00 +22°C° 0 mm 3 mps 720 mmHg 37%
    01:00 +22°C° 0 mm 3 mps 720 mmHg 45%
    02:00 +21°C° 0 mm 3 mps 720 mmHg 53%
    03:00 +21°C° 0 mm 3 mps 720 mmHg 54%
    04:00 +20°C° 0 mm 3 mps 720 mmHg 56%
    05:00 +20°C° 0 mm 3 mps 720 mmHg 58%
    06:00 +21°C° 0 mm 3 mps 721 mmHg 53%
    07:00 +22°C° 0 mm 3 mps 721 mmHg 48%
    08:00 +24°C° 0 mm 3 mps 722 mmHg 43%
    09:00 +26°C° 0 mm 2 mps 722 mmHg 37%
    10:00 +28°C° 0 mm 2 mps 722 mmHg 31%
    11:00 +30°C° 0 mm 2 mps 722 mmHg 25%
    12:00 +31°C° 0 mm 2 mps 722 mmHg 22%
    13:00 +32°C° 0 mm 2 mps 721 mmHg 19%
    14:00 +34°C° 0 mm 2 mps 720 mmHg 16%
    15:00 +33°C° 0 mm 1 mps 720 mmHg 16%
    16:00 +32°C° 0 mm 1 mps 720 mmHg 17%
    17:00 +32°C° 0 mm 1 mps 719 mmHg 17%
    18:00 +30°C° 0 mm 2 mps 720 mmHg 19%
    19:00 +28°C° 0 mm 2 mps 720 mmHg 20%
    20:00 +27°C° 0 mm 3 mps 721 mmHg 22%
    21:00 +26°C° 0 mm 3 mps 721 mmHg 26%
    22:00 +25°C° 0 mm 3 mps 721 mmHg 30%
    23:00 +24°C° 0 mm 3 mps 721 mmHg 33%
    Show more